Location: Dover
(39.1580°N, 75.5250°W)
Time: 09:36:03
(UTC-05:00)

Daily predictions for brighter satellites

Satellite Brightness Start Highest point End
(mag) Time Altitude Azimuth Time Altitude Azimuth Time Altitude Azimuth
IDEFIX/ARIANE 42P 2.9 16:58:13 10° SE 17:03:05 43° ENE 17:07:57 10° N
Okean 1 3.5 17:00:41 10° S 17:04:39 56° E 17:08:39 10° NNE
Genesis I 3.1 17:01:14 10° NNW 17:05:10 76° ENE 17:09:03 10° SE
Abrixas 2.9 17:02:23 10° NW 17:05:12 40° NNE 17:08:01 10° E
Thor Agena Rocket 3.9 17:00:32 10° NNE 17:05:37 48° E 17:10:42 10° S
Cosmos 1238 Rocket 2.2 17:03:28 10° S 17:06:25 83° W 17:09:38 10° N
Cosmos 2251 Rocket 4.1 17:01:56 10° NNW 17:07:15 67° WSW 17:12:28 10° S
Timation 2 Rocket 4.4 17:01:01 10° NNW 17:07:38 48° ENE 17:14:15 10° SE
Cosmos 1346 Rocket 3.2 17:04:21 10° SSE 17:08:02 42° E 17:11:42 10° NNE
Cosmos 1833 Rocket 3.3 17:03:14 10° N 17:08:19 33° ENE 17:13:20 10° ESE
Cosmos 1536 Rocket 3.6 17:03:59 10° S 17:08:26 72° E 17:12:54 10° NNE
CZ-2C R/B 4.5 17:11:28 10° N 17:15:50 54° WNW 17:20:15 10° SSW
USA 234 3.3 17:10:01 10° NE 17:16:34 74° SE 17:23:05 10° SW
Cosmos 2082 Rocket 2.5 17:12:16 10° N 17:17:43 46° ENE 17:23:09 10° SE
YAOGAN 1 2.7 17:14:28 10° SSE 17:18:38 51° ENE 17:22:51 10° N
CRYOSAT 2 4.5 17:14:16 10° N 17:19:11 84° W 17:24:03 10° S
PAYLOAD A 4.0 17:15:11 10° SSE 17:20:02 85° WSW 17:25:08 10° NNW
Cosmos 1500 3.2 17:21:22 10° N 17:25:12 65° E 17:29:02 10° SSE
CZ-2C R/B 2.5 17:21:05 10° SSE 17:26:04 73° ENE 17:31:14 10° N
Timation 1 Rocket 4.4 17:20:46 10° S 17:26:38 64° ESE 17:32:33 10° NNE
Cosmos 1743 3.4 17:24:12 10° NNE 17:27:41 31° ENE 17:31:08 10° SE
Nadezhda 3 Rocket 4.1 17:22:52 10° SSE 17:28:54 57° E 17:35:02 10° NNE
NOSS 3-4 (A) 4.3 17:23:56 10° NNW 17:30:23 38° NE 17:37:11 10° ESE
NOSS 3-4 (C) 4.3 17:24:03 10° NNW 17:30:29 37° NE 17:37:15 10° ESE
Cosmos 1455 Rocket 4.2 17:32:02 10° NNW 17:36:18 47° W 17:40:32 10° SSW
Meteor 1-19 Rocket 4.4 17:33:08 10° S 17:38:44 54° E 17:44:26 10° NNE
Delta 2 Rocket 3.7 17:38:10 10° WSW 17:41:36 49° S 17:44:48 14° ESE
SKYMED 2 4.0 17:40:09 10° NNE 17:44:16 41° E 17:48:21 10° S
Cosmos 1484 Rocket 3.1 17:41:10 10° SE 17:44:39 39° ENE 17:48:09 10° N
Cosmos 2056 Rocket 4.0 17:39:52 10° S 17:44:51 41° ESE 17:49:18 13° NE
GRACE-2 3.9 17:44:18 10° SSE 17:47:01 52° E 17:49:44 10° N
GRACE-1 3.9 17:44:43 10° SSE 17:47:26 54° E 17:50:10 10° N
Cosmos 1809 Rocket 4.5 17:44:11 10° N 17:50:21 86° W 17:56:27 10° S
SMAP 3.5 17:46:10 10° S 17:50:46 64° WSW 17:55:25 10° NNW
Cosmos 2369 Rocket 3.6 17:50:57 10° SE 17:54:38 18° E 17:54:58 18° E
CORIOLIS 4.4 17:49:23 10° S 17:54:47 73° WSW 18:00:11 10° NNW
Okean 2 4.2 17:52:03 10° SSE 17:55:40 30° E 17:57:07 24° NE
Meteor 2-9 Rocket 4.4 17:51:03 10° N 17:56:09 42° ENE 18:01:10 10° SSE
Cosmos 1892 Rocket 4.3 17:53:32 10° SSE 17:57:17 29° E 17:58:40 24° ENE
Cosmos 1975 4.5 17:53:44 10° NNW 17:57:29 37° W 18:01:11 10° SSW
SL-24 DEB 4.4 17:52:52 10° N 17:57:36 75° W 18:02:14 10° SSW
Cosmos 1624 Rocket 4.0 17:52:34 10° S 17:57:38 58° ESE 18:02:04 14° NNE
Meteor 1-23 Rocket 4.4 17:55:54 10° SSE 18:01:24 51° E 18:06:50 10° NNE
Meteor 1-13 Rocket 4.4 17:56:40 10° SSW 18:02:22 78° W 18:08:13 10° N
Meteor 2-4 Rocket 3.6 17:57:35 10° S 18:02:51 61° E 18:08:07 10° NNE
Okean 1-7 Rocket 3.7 17:58:50 10° S 18:03:19 79° W 18:07:48 10° N
Cosmos 1371 Rocket 4.0 17:58:15 10° SSW 18:03:37 83° ESE 18:08:53 11° NNE
Cosmos 1726 Rocket 4.1 18:00:28 10° N 18:04:35 35° ENE 18:08:41 10° SE
CZ-4 R/B 3.6 18:03:13 10° SSW 18:06:50 28° W 18:10:26 10° NW
Tiangong 1 1.6 18:06:09 10° WNW 18:09:02 39° N 18:09:19 38° NNE
Meteor 2-8 Rocket 4.5 18:03:17 10° SSE 18:09:09 54° E 18:15:06 10° NNE
MSX 4.2 18:05:49 10° S 18:11:32 69° WSW 18:17:16 10° NNW
Cosmos 1934 Rocket 4.0 18:06:57 10° N 18:13:08 62° E 18:19:22 10° SSE
NOSS 7 (H) 4.2 18:12:10 10° SSW 18:15:33 80° ESE 18:16:13 53° NE
Cosmos 1340 3.5 18:16:17 10° SSE 18:18:56 34° SE 18:18:56 34° SE
Cosmos 1535 Rocket 4.5 18:17:04 10° N 18:23:23 86° W 18:29:34 10° S
Cosmos 1606 Rocket 3.4 18:19:42 10° N 18:24:12 72° E 18:28:39 10° SSE
METEOR-M 4.2 18:21:30 10° SE 18:26:38 51° ENE 18:31:49 10° N
COSMO-SKYMED 1 3.2 18:28:06 10° N 18:32:21 55° WNW 18:36:34 10° SSW
Cosmos 1452 Rocket 3.7 18:28:44 10° S 18:33:43 46° ESE 18:33:51 46° E
Cosmos 1190 Rocket 3.8 18:30:22 10° NNW 18:35:38 81° ENE 18:40:50 10° SSE
GEOS 3 Rocket 4.0 18:36:10 42° NE 18:36:10 42° NE 18:40:43 10° NNW
Cosmos 1025 Rocket 3.9 18:34:03 10° SSW 18:38:18 49° W 18:42:27 11° N
Cosmos 1666 3.3 18:35:36 10° NNW 18:39:25 58° W 18:43:14 10° S
Cosmos 1153 Rocket 4.4 18:45:15 10° N 18:51:19 58° E 18:57:20 10° SSE
Cosmos 1833 Rocket 4.4 18:47:10 10° NW 18:52:10 33° WSW 18:57:08 10° SSW
Cosmos 1605 Rocket 3.9 18:52:20 10° N 18:58:38 83° W 19:04:47 10° S
USA 234 4.3 18:56:14 24° NNE 18:59:13 37° NNW 19:05:05 10° W
CZ-3B DEB 4.3 18:55:44 10° WNW 19:01:01 30° N 19:04:31 25° NNE
Cosmos 2082 Rocket 4.5 18:57:02 10° NW 19:01:26 24° W 19:05:50 10° SSW
BREEZE M DEB (TANK) 4.3 19:09:38 10° W 19:13:17 24° NW 19:13:17 24° NW
BREEZE M DEB (TANK) 4.2 19:26:26 10° WNW 19:31:25 86° SW 19:34:22 53° SE
Cosmos 2369 Rocket 3.0 19:32:30 10° SW 19:36:50 48° WSW 19:36:50 48° WSW
FALCON 9 R/B 3.3 19:33:55 10° W 19:49:07 58° SSW 19:49:07 58° SSW
ATLAS 3B CENTAUR R/B 4.3 19:45:52 10° W 19:58:51 32° SSW 20:00:27 30° SSW
